Location: Buch
(49.7331°N, 12.1098°E)
Time: 22:12:43
(UTC+00:00)

Landsat 7 - Pass Details

Date: 29 September 2021
Orbit: 701 x 703 km, 98.0° (Epoch: 26 October)

Event Time Altitude Azimuth Distance (km) Brightness Sun altitude
Exits shadow 19:45:50 70° 332° (NNW) 753 4.0 -27.4°
Drops below altitude 10° 19:50:04 10° 345° (NNW) 2,182 6.9 -28.0°
Sets 19:52:20 0° 346° (NNW) 3,105 7.8 -28.3°
